Cienfuegos, Cuba

8:26 AM CST on December 06, 2019 (GMT -0500)
Jaime Gonzalez

Weather History for MUCF - October, 2019

Change the Weather History Date:

Wednesday, October 30, 2019

  Actual Average Record
Temperature  
Mean Temperature 82 °F -  
Max Temperature 89 °F - - ()
Min Temperature 75 °F - - ()
Cooling Degree Days 17    
Growing Degree Days 32 (Base 50)    
Moisture  
Dew Point 75 °F    
Average Humidity 85    
Maximum Humidity 100    
Minimum Humidity 62    
Precipitation  
Precipitation 0.00 in - - ()
Sea Level Pressure  
Sea Level Pressure 29.98 in    
Wind  
Wind Speed 5 mph ()    
Max Wind Speed 9 mph    
Max Gust Speed -    
Visibility 6.1 miles    
Events      
T = Trace of Precipitation, MM = Missing Value Source: Averaged Metar Reports

Daily Weather History Graph

Daily Weather History Graph

Search for Another Location

Airport or City:

Astronomy

Oct. 30, 2019 Rise Set
Actual Time 7:24 AM CDT 6:45 PM CDT
Civil Twilight 7:01 AM CDT 7:08 PM CDT
Nautical Twilight 6:35 AM CDT 7:35 PM CDT
Astronomical Twilight 6:08 AM CDT 8:01 PM CDT
Moon 9:52 AM CDT (10/30) 9:08 PM CDT (10/30)
Length of Visible Light 12h 07m
Length of Day
11h 21m
Waxing Crescent, 8% of the Moon is Illuminated
Oct 30
Waxing Crescent
Nov 4
First Quarter
Nov 12
Full
Nov 19
Last Quarter
Nov 26
New

Hourly Weather History & Observations

Time (CDT) Temp. Heat Index Dew Point Humidity Pressure Visibility Wind Dir Wind Speed Gust Speed Precip Events Conditions
1:59 AM 77.0 °F - 75.2 °F 94% 29.98 in - ENE 5.8 mph - N/A   Unknown
2:59 AM 75.2 °F - 75.2 °F 100% 29.98 in - ENE 4.6 mph - N/A   Unknown
3:59 AM 75.2 °F - 73.4 °F 94% 29.98 in - ENE 5.8 mph - N/A   Unknown
4:59 AM 75.2 °F - 73.4 °F 94% 29.95 in - East 4.6 mph - N/A   Unknown
6:59 AM 75.2 °F - 73.4 °F 94% 29.98 in - ENE 6.9 mph - N/A   Unknown
7:59 AM 75.2 °F - 73.4 °F 94% 29.98 in - ENE 8.1 mph - N/A   Unknown
8:52 AM 78.8 °F - 75.2 °F 89% 30.01 in 6.2 mi East 8.1 mph - N/A   Partly Cloudy
9:50 AM 82.4 °F 89.5 °F 75.2 °F 79% 30.01 in 6.2 mi East 8.1 mph - N/A   Partly Cloudy
10:50 AM 86.0 °F 96.9 °F 77.0 °F 74% 30.04 in 6.2 mi East 8.1 mph - N/A   Partly Cloudy
11:50 AM 87.8 °F 97.6 °F 75.2 °F 66% 30.01 in 6.2 mi East 6.9 mph - N/A   Partly Cloudy
12:50 PM 89.6 °F 99.8 °F 75.2 °F 62% 29.98 in 6.2 mi ENE 5.8 mph - N/A   Partly Cloudy
1:50 PM 87.8 °F 97.6 °F 75.2 °F 66% 29.95 in 6.2 mi SW 9.2 mph - N/A   Scattered Clouds
2:50 PM 89.6 °F 102.2 °F 77.0 °F 66% 29.95 in 6.2 mi SW 6.9 mph - N/A   Scattered Clouds
3:51 PM 84.2 °F 94.1 °F 77.0 °F 79% 29.92 in 5.6 mi North 9.2 mph - N/A   Scattered Clouds
4:59 PM 86.0 °F 96.9 °F 77.0 °F 74% 29.92 in - East 5.8 mph - N/A   Unknown
6:59 PM 78.8 °F - 75.2 °F 89% 29.95 in - East 3.5 mph - N/A   Unknown
7:59 PM 77.0 °F - 75.2 °F 94% 29.98 in - Variable 2.3 mph - N/A   Unknown
8:59 PM 77.0 °F - 75.2 °F 94% 29.98 in - ENE 6.9 mph - N/A   Unknown
9:59 PM 75.2 °F - 73.4 °F 94% 30.01 in - ENE 5.8 mph - N/A   Unknown
10:59 PM 75.2 °F - 73.4 °F 94% 29.98 in - NE 5.8 mph - N/A   Unknown
11:59 PM 75.2 °F - 73.4 °F 94% 30.01 in - ENE 3.5 mph - N/A   Unknown